Retour au catalogue

STARLINK-36786

ActifCommunicationsVLEO
NORAD 67872·PAYLOAD·🇺🇸 United States

Lancé Feb 20, 2026 depuis Vandenberg Space Force Base

Loading…

Prochains Passages (prochaines 24 heures)

TLE

FraisSource: CelesTrak SupGP

Époque: Sep 15, 2026, 04:06 UTC

1 67872C 26034Y   26258.17131944  .00020506  00000+0  65969-3 0  2586
2 67872  53.1593  42.7114 0001101  91.5435 352.0716 15.31679422    12

Suivez STARLINK-36786 en temps réel avec AllMySat

Download on the App Store